www.pogodaiklimat.ru

Погода и климат >> Архив погоды >> Норвегия >> Svinoy Fyr


ПОГОДА в Svinoy Fyr

  • Прогноз погоды в Svinoy Fyr
  • Монитор погоды в Svinoy Fyr
  • Климат города

АРХИВ ПОГОДЫ в Svinoy Fyr

Время (UTC), дата Ветер
(напр.,м/с)
 
Видим.   Явления Облачность Т
(С)
Тd
(С)
f
(%)
Тe
(С)
Тes
(С)
Комфортность P
(гПа)
Po
(гПа)
Тmin
(С)
Tmax
(С)
R
(мм)
R24
(мм)
S
(см)
01 14.11 ЮЗ 10-13
{14}
н/о н/о +9.6 +6.7 82 +5 +5 1011.4 1006.9
02 14.11 ЮЗ 12-16
{16}
н/о н/о +10.1 +7.0 81 +5 +5 1011.2 1006.7
03 14.11 ЮЗ 15-19
{19}
н/о н/о +10.3 +6.1 75 +5 +5 1010.6 1006.1
05 14.11 ЮЗ 9-12
{14}
н/о н/о +9.7 +6.1 78 +5 +5 1011.7 1007.2
04 14.11 Ю 9-14
{18}
н/о н/о +10.0 +5.6 74 +6 +6 1011.6 1007.1
06 14.11 Ю 11-15
{19}
н/о н/о +10.4 +4.8 68 +6 +6 1011.3 1006.8 +9.1 +10.5
07 14.11 Ю 12-16
{16}
н/о н/о +10.5 +4.0 64 +6 +6 1011.4 1006.9
08 14.11 Ю 13-17
{17}
н/о н/о +10.7 +3.7 62 +6 +6 1011.1 1006.6
09 14.11 Ю 15-19
{19}
н/о н/о +10.9 +3.9 62 +6 +6 1010.7 1006.2
11 14.11 Ю 13-19
{20}
н/о н/о +11.0 +4.5 64 +7 +7 1010.7 1006.2
10 14.11 Ю 13-17
{19}
н/о н/о +10.8 +4.7 66 +6 +6 1010.8 1006.3
12 14.11 Ю 15-21
{21}
н/о н/о +11.1 +5.0 66 +6 +6 1010.6 1006.1
13 14.11 Ю 14-18
{22}
н/о н/о +11.1 +5.6 69 +7 +7 1010.2 1005.7
14 14.11 Ю 15-22
{22}
н/о н/о +11.2 +5.7 69 +7 +7 1009.9 1005.4
15 14.11 Ю 15-20
{22}
н/о н/о +11.3 +6.0 70 +7 +7 1009.9 1005.4
17 14.11 Ю 15-19
{20}
н/о н/о +11.7 +6.0 68 +7 +7 1009.8 1005.3
16 14.11 Ю 13-19
{19}
н/о н/о +11.2 +6.4 72 +7 +7 1010.2 1005.7
18 14.11 Ю 13-18
{22}
н/о н/о +11.6 +6.1 69 +7 +7 1010.0 1005.5 +10.3 +11.9
19 14.11 Ю 12-18
{18}
н/о н/о +11.9 +6.0 67 +8 +8 1009.7 1005.2
20 14.11 Ю 11-14
{16}
н/о н/о +11.8 +6.3 69 +8 +8 1009.5 1005.0
21 14.11 Ю 10-15
{16}
н/о н/о +11.8 +6.5 70 +8 +8 1009.2 1004.7
23 14.11 Ю 12-17
{17}
н/о н/о +12.2 +7.3 72 +8 +8 1009.2 1004.7
22 14.11 Ю 10-13
{14}
н/о н/о +12.1 +6.8 70 +9 +9 1009.3 1004.8
00 15.11 Ю 13-16
{18}
н/о н/о +12.0 +8.1 77 +8 +8 1009.2 1004.7
01 15.11 Ю 13-16
{18}
н/о н/о +12.2 +8.9 80 +8 +8 1009.6 1005.1
02 15.11 Ю 13-16
{16}
н/о н/о +12.3 +9.0 80 +8 +8 1009.9 1005.4
03 15.11 Ю 13-15
{16}
н/о н/о +12.5 +9.0 79 +9 +9 1010.1 1005.6
05 15.11 ЮЗ 14-18
{21}
н/о н/о +12.8 +8.7 76 +9 +9 1010.7 1006.2
04 15.11 ЮЗ 12-15
{16}
н/о н/о +12.8 +9.1 78 +9 +9 1010.3 1005.8
06 15.11 Ю 14-18
{22}
н/о н/о +12.4 +9.1 80 +8 +8 1011.3 1006.8 +11.5 +13.0
07 15.11 Ю 14-19
{19}
н/о н/о +12.4 +9.2 81 +8 +8 1012.1 1007.6
08 15.11 ЮЗ 14-17
{19}
н/о н/о +12.4 +9.4 82 +8 +8 1012.8 1008.3
09 15.11 ЮЗ 13-19
{19}
н/о н/о +12.6 +9.6 82 +9 +9 1013.5 1009.0
11 15.11 Ю 15-19
{19}
н/о н/о +12.3 +9.7 84 +8 +8 1013.8 1009.3
10 15.11 ЮЗ 14-16
{19}
н/о н/о +12.4 +9.6 83 +8 +8 1014.2 1009.7
12 15.11 Ю 15-19
{20}
н/о н/о +12.6 +9.4 81 +8 +8 1014.2 1009.7
13 15.11 Ю 14-18
{19}
н/о н/о +13.2 +8.7 74 +9 +9 1014.7 1010.2
14 15.11 Ю 14-19
{19}
н/о н/о +13.7 +8.3 70 +10 +10 1015.1 1010.6
15 15.11 ЮЗ 13-17
{18}
н/о н/о +13.4 +8.7 73 +10 +10 1015.2 1010.7
17 15.11 ЮЗ 11-14
{17}
н/о н/о +13.1 +7.6 69 +10 +10 1015.5 1011.0
16 15.11 ЮЗ 14-19
{20}
н/о н/о +13.3 +8.4 72 +10 +10 1015.0 1010.5
18 15.11 ЮЗ 12-15
{20}
н/о н/о +12.2 +7.1 71 +8 +8 1015.3 1010.8 +11.6 +13.8
19 15.11 ЮЗ 13-17
{18}
н/о н/о +12.7 +5.2 60 +9 +9 1015.2 1010.7
20 15.11 Ю 11-16
{17}
н/о н/о +13.0 +4.5 56 +10 +10 1015.5 1011.0
21 15.11 Ю 12-16
{18}
н/о н/о +12.8 +4.8 58 +9 +9 1015.4 1010.9
23 15.11 Ю 14-19
{24}
н/о н/о +13.2 +3.9 53 +10 +10 1016.0 1011.5
22 15.11 ЮЗ 15-21
{21}
н/о н/о +13.1 +3.8 53 +9 +9 1014.5 1010.0
00 16.11 Ю 14-18
{24}
н/о н/о +13.0 +5.4 60 +9 +9 1015.8 1011.3
01 16.11 Ю 14-19
{20}
н/о н/о +13.2 +5.9 61 +10 +10 1015.9 1011.4
02 16.11 Ю 18-23
{24}
н/о н/о +13.8 +6.7 62 +10 +10 1015.5 1011.0
03 16.11 ЮЗ 20-26
{26}
н/о н/о +13.1 +7.6 69 +9 +9 1015.7 1011.2
05 16.11 ЮЗ 16-23
{24}
н/о н/о +11.5 +8.0 79 +7 +7 1017.7 1013.2
04 16.11 ЮЗ 15-21
{29}
н/о н/о +11.7 +8.2 79 +7 +7 1016.8 1012.3
06 16.11 ЮЗ 19-25
{29}
н/о н/о +11.0 +8.6 85 +6 +6 1018.5 1014.0 +10.8 +14.0
07 16.11 ЮЗ 15-19
{23}
н/о н/о +10.9 +9.2 89 +6 +6 1019.7 1015.2
08 16.11 ЮЗ 21-25
{26}
н/о н/о +10.6 +9.5 93 +5 +5 1020.1 1015.6
09 16.11 ЮЗ 22-30
{30}
н/о н/о +10.7 +9.5 92 +5 +5 1021.4 1016.9
11 16.11 ЮЗ 21-24
{25}
н/о н/о +10.2 +9.9 98 +4 +4 1023.7 1019.1
10 16.11 ЮЗ 22-25
{29}
н/о н/о +10.3 +10.0 98 +4 +4 1022.6 1018.0
12 16.11 ЮЗ 20-23
{30}
н/о н/о +10.1 +9.8 98 +4 +4 1024.5 1019.9
13 16.11 ЮЗ 18-22
{22}
н/о н/о +10.2 +9.9 98 +4 +4 1025.7 1021.1
14 16.11 ЮЗ 16-19
{21}
н/о н/о +10.6 +9.8 95 +5 +5 1026.7 1022.1
15 16.11 ЮЗ 17-19
{24}
н/о н/о +10.3 +9.5 95 +5 +5 1027.4 1022.8
17 16.11 ЮЗ 13-15
{17}
н/о н/о +10.3 +9.5 95 +5 +5 1029.4 1024.8
16 16.11 ЮЗ 12-15
{18}
н/о н/о +10.7 +9.3 91 +6 +6 1028.6 1024.0
18 16.11 ЮЗ 12-16
{24}
н/о н/о +10.4 +9.2 92 +6 +6 1030.4 1025.8 +10.1 +11.0
19 16.11 ЮЗ 10-12
{14}
н/о н/о +10.5 +9.4 93 +6 +6 1031.3 1026.7
20 16.11 ЮЗ 9-11
{14}
н/о н/о +10.7 +9.3 91 +7 +7 1032.0 1027.4
21 16.11 ЮЗ 7-9
{12}
н/о н/о +10.7 +9.1 90 +7 +7 1032.8 1028.2
23 16.11 ЮЗ 7-8
{10}
н/о н/о +10.4 +9.3 93 +7 +7 1034.2 1029.6
22 16.11 ЮЗ 8-10
{11}
н/о н/о +10.7 +8.8 88 +7 +7 1033.4 1028.8
00 17.11 ЮЗ 6-7
{14}
н/о н/о +10.6 +9.2 91 +7 +7 1034.6 1030.0
01 17.11 ЮЗ 7-8
{9}
н/о н/о +10.4 +9.2 92 +7 +7 1035.1 1030.5
02 17.11 ЮЗ 8-10
{10}
н/о н/о +10.4 +9.2 92 +6 +6 1035.6 1031.0
03 17.11 ЮЗ 7-8
{10}
н/о н/о +10.3 +9.2 93 +7 +7 1035.8 1031.2
05 17.11 ЮЗ 8-9
{9}
н/о н/о +10.1 +9.2 94 +6 +6 1036.5 1031.9
04 17.11 ЮЗ 8-9
{9}
н/о н/о +10.3 +9.1 92 +6 +6 1036.1 1031.5
06 17.11 ЮЗ 7-9
{10}
н/о н/о +10.1 +9.2 94 +6 +6 1037.0 1032.4 +10.1 +10.8
07 17.11 ЮЗ 8-9
{9}
н/о н/о +10.2 +9.3 94 +6 +6 1037.5 1032.9
08 17.11 ЮЗ 6-7
{8}
н/о н/о +10.1 +9.3 95 +7 +7 1038.3 1033.7
09 17.11 ЮЗ 4-5
{7}
н/о н/о +10.2 +9.0 92 +7 +7 1038.9 1034.3
11 17.11 З 3-5
{6}
н/о н/о +10.2 +8.8 91 +8 +8 1039.2 1034.6
10 17.11 ЮЗ 4-5
{5}
н/о н/о +10.2 +8.8 91 +7 +7 1039.1 1034.5
12 17.11 З 4-6
{9}
н/о н/о +10.0 +8.9 93 +7 +7 1039.4 1034.8
13 17.11 З 5-6
{6}
н/о н/о +9.9 +9.0 94 +7 +7 1039.3 1034.7
14 17.11 З 4-4
{6}
н/о н/о +9.8 +8.9 94 +7 +7 1039.6 1035.0
15 17.11 З 4-4
{5}
н/о н/о +9.7 +8.9 95 +7 +7 1039.8 1035.2
17 17.11 С 2-3
{3}
н/о н/о +9.7 +8.8 94 +8 +8 1040.1 1035.5
16 17.11 СЗ 3-4
{4}
н/о н/о +9.7 +8.6 93 +7 +7 1039.9 1035.3
18 17.11 -3
{6}
н/о н/о +9.6 +9.3 98 1040.2 1035.6 +9.5 +10.3
19 17.11 СВ 4-4
{5}
н/о н/о +9.9 +9.6 98 +7 +7 1040.4 1035.8
20 17.11 Ю 1-1
{3}
н/о н/о +9.7 +9.4 98 +9 +9 1040.4 1035.8
21 17.11 ЮВ 1-1
{2}
н/о н/о +9.5 +9.2 98 +9 +9 1040.2 1035.6
23 17.11 ЮЗ 2-3
{3}
н/о н/о +9.6 +9.3 98 +8 +8 1040.3 1035.7
22 17.11 ЮЗ 3-3
{3}
н/о н/о +9.5 +9.2 98 +7 +7 1040.4 1035.8
00 18.11 ЮЗ 2-2
{5}
н/о н/о +9.6 +9.3 98 +8 +8 1040.2 1035.6
01 18.11 СЗ 1-2
{2}
н/о н/о +9.5 +9.2 98 +9 +9 1040.4 1035.8
02 18.11 ЮЗ 2-2
{2}
н/о н/о +9.5 +9.2 98 +8 +8 1040.3 1035.7
03 18.11 ЮВ 3-4
{4}
н/о н/о +9.3 +8.5 95 +7 +7 1040.0 1035.4
05 18.11 ЮВ 2-4
{4}
н/о н/о +9.2 +8.1 93 +7 +7 1039.9 1035.3
04 18.11 Ю 3-4
{4}
н/о н/о +9.3 +8.4 94 +7 +7 1039.9 1035.3
06 18.11 ЮВ 2-3
{4}
н/о н/о +9.1 +7.9 92 +7 +7 1039.7 1035.1 +9.0 +10.0
07 18.11 ЮВ 3-4
{4}
н/о н/о +8.9 +7.7 92 +6 +6 1039.6 1035.0
08 18.11 Ю 2-3
{4}
н/о н/о +9.0 +7.8 92 +7 +7 1039.7 1035.1
09 18.11 ЮВ 2-3
{4}
н/о н/о +8.8 +7.9 94 +7 +7 1040.3 1035.6
11 18.11 Ю 2-3
{4}
н/о н/о +9.0 +8.1 94 +7 +7 1040.6 1035.9
10 18.11 ЮВ 2-4
{4}
н/о н/о +8.6 +7.7 94 +7 +7 1040.5 1035.8
12 18.11 З 5-7
{7}
н/о н/о +9.4 +6.7 83 +6 +6 1040.2 1035.6
13 18.11 ЮЗ 5-6
{7}
н/о н/о +9.0 +7.8 92 +5 +5 1039.9 1035.3
14 18.11 ЮЗ 6-7
{8}
н/о н/о +8.8 +7.6 92 +5 +5 1040.0 1035.3
15 18.11 З 5-7
{7}
н/о н/о +8.7 +6.3 85 +5 +5 1040.1 1035.4
17 18.11 Ю 3-5
{6}
н/о н/о +8.7 +6.2 84 +6 +6 1040.2 1035.5
16 18.11 ЮЗ 4-5
{7}
н/о н/о +8.7 +6.2 84 +6 +6 1040.1 1035.4
18 18.11 Ю 4-5
{8}
н/о н/о +8.6 +6.2 85 +5 +5 1040.1 1035.4 +8.6 +9.5
19 18.11 Ю 3-4
{5}
н/о н/о +8.7 +5.8 82 +6 +6 1040.3 1035.6
20 18.11 Ю 4-6
{7}
н/о н/о +8.6 +5.7 82 +6 +6 1039.8 1035.1
21 18.11 Ю 3-5
{6}
н/о н/о +8.5 +5.6 82 +6 +6 1039.5 1034.8
23 18.11 Ю 3-4
{5}
н/о н/о +8.4 +5.0 79 +6 +6 1039.2 1034.5
22 18.11 Ю 4-5
{6}
н/о н/о +8.5 +5.1 79 +5 +5 1039.5 1034.8
00 19.11 Ю 2-3
{7}
н/о н/о +8.3 +5.1 80 +6 +6 1038.9 1034.2
01 19.11 Ю 2-3
{4}
н/о н/о +8.2 +5.1 81 +6 +6 1038.6 1033.9
02 19.11 ЮЗ 2-3
{4}
н/о н/о +8.4 +4.4 76 +7 +7 1038.2 1033.5
03 19.11 ЮЗ 3-4
{4}
н/о н/о +8.2 +4.4 77 +6 +6 1038.1 1033.4
05 19.11 ЮЗ 2-3
{5}
н/о н/о +8.1 +4.3 77 +6 +6 1037.8 1033.1
04 19.11 ЮЗ 3-4
{4}
н/о н/о +8.2 +4.4 77 +6 +6 1037.8 1033.1
06 19.11 ЮЗ 4-5
{5}
н/о н/о +8.0 +4.4 78 +5 +5 1037.8 1033.1 +8.0 +8.7
07 19.11 Ю 2-4
{5}
н/о н/о +8.0 +4.4 78 +6 +6 1037.9 1033.2
08 19.11 Ю 3-4
{4}
н/о н/о +8.1 +4.5 78 +6 +6 1038.0 1033.3
09 19.11 Ю 3-4
{5}
н/о н/о +7.8 +4.9 82 +5 +5 1038.1 1033.4
11 19.11 ЮВ 3-5
{5}
н/о н/о +7.8 +4.4 79 +5 +5 1037.5 1032.8
10 19.11 ЮВ 3-4
{5}
н/о н/о +7.7 +4.7 81 +5 +5 1038.0 1033.3
12 19.11 ЮВ 4-5
{5}
н/о н/о +7.8 +4.2 78 +5 +5 1037.3 1032.6
13 19.11 ЮВ 4-5
{5}
н/о н/о +7.8 +4.6 80 +5 +5 1036.9 1032.2
14 19.11 ЮВ 3-4
{6}
н/о н/о +7.7 +4.1 78 +5 +5 1036.7 1032.0
15 19.11 В 3-4
{4}
н/о н/о +7.9 +4.0 76 +5 +5 1036.7 1032.0
17 19.11 В 4-5
{6}
н/о н/о +7.6 +4.0 78 +4 +4 1036.3 1031.6
16 19.11 В 5-6
{6}
н/о н/о +7.8 +3.7 75 +4 +4 1036.2 1031.5
18 19.11 В 4-5
{7}
н/о н/о +7.5 +3.6 76 +4 +4 1036.0 1031.3 +7.4 +8.2
19 19.11 В 4-5
{6}
н/о н/о +7.3 +3.2 75 +4 +4 1036.3 1031.6
20 19.11 В 5-6
{7}
н/о н/о +7.2 +3.5 77 +3 +3 1036.1 1031.4
21 19.11 В 5-7
{7}
н/о н/о +7.2 +3.3 76 +3 +3 1036.1 1031.4
23 19.11 СВ 6-8
{8}
н/о н/о +7.2 +2.9 74 +3 +3 1035.7 1031.0
22 19.11 СВ 4-6
{8}
н/о н/о +7.2 +2.7 73 +4 +4 1036.0 1031.3
00 20.11 В 7-8
{9}
н/о н/о +7.1 +3.0 75 +2 +2 1035.5 1030.8
01 20.11 СВ 8-9
{10}
н/о н/о +6.9 +2.6 74 +2 +2 1035.0 1030.3
02 20.11 СВ 7-9
{9}
н/о н/о +6.6 +3.1 78 +2 +2 1034.8 1030.1
03 20.11 В 6-8
{9}
н/о н/о +6.3 +2.9 79 +2 +2 1034.5 1029.8
05 20.11 В 6-7
{8}
н/о н/о +6.3 +2.9 79 +2 +2 1033.5 1028.8
04 20.11 В 7-8
{8}
н/о н/о +6.4 +3.2 80 +1 +1 1034.0 1029.3
06 20.11 В 9-11
{12}
н/о н/о +6.7 +3.0 77 +1 +1 1033.2 1028.5 +6.2 +7.5
07 20.11 В 10-13
{13}
н/о н/о +6.5 +2.6 76 +1 +1 1033.1 1028.4
08 20.11 В 11-14
{14}
н/о н/о +6.3 +2.9 79 0 0 1032.8 1028.1
09 20.11 СВ 12-14
{15}
н/о н/о +6.2 +2.8 79 -0 -0 1032.2 1027.5
11 20.11 В 13-16
{16}
н/о н/о +5.9 +2.4 78 -1 -1 1030.7 1026.0
10 20.11 В 12-15
{15}
н/о н/о +6.0 +2.7 79 -0 -0 1031.5 1026.8
12 20.11 В 12-13
{16}
н/о н/о +5.8 +2.5 79 -1 -1 1030.4 1025.7
13 20.11 СВ 11-13
{14}
н/о н/о +6.0 +2.8 80 -0 -0 1030.0 1025.3
14 20.11 В 10-12
{13}
н/о н/о +5.7 +2.2 78 -0 -0 1029.5 1024.8
15 20.11 В 11-12
{14}
н/о н/о +5.8 +1.2 72 -0 -0 1028.8 1024.1
17 20.11 СВ 9-11
{11}
н/о н/о +6.1 +2.0 75 +1 +1 1028.1 1023.5
16 20.11 В 10-11
{12}
н/о н/о +5.8 +1.2 72 -0 -0 1028.4 1023.8
18 20.11 В 6-7
{14}
н/о н/о +5.7 +0.7 70 +1 +1 1028.3 1023.6 +5.6 +6.8
19 20.11 В 4-5
{7}
н/о н/о +5.2 +1.0 74 +1 +1 1028.2 1023.5
20 20.11 В 4-5
{5}
н/о н/о +5.3 +1.1 74 +1 +1 1028.1 1023.4
21 20.11 В 3-4
{5}
н/о н/о +5.1 +0.9 74 +2 +2 1028.3 1023.6
23 20.11 ЮВ 4-5
{5}
н/о н/о +4.9 +1.0 76 +1 +1 1028.2 1023.5
22 20.11 ЮВ 3-4
{4}
н/о н/о +5.1 +1.4 77 +2 +2 1028.2 1023.5

 

Местоположение метеостанции Svinoy Fyr (Норвегия): широта 62.33 долгота 5.27 высота над уровнем моря 38 м.

В архиве по умолчанию представлена погода в Svinoy Fyr за последнюю неделю. Архивные данные за месяц целиком и за предыдущие месяцы, начиная с января 2011 года, Вы можете получить, выбрав интересующий диапазон дат из раскрывающегося списка и нажав кнопку "Ввод!".


*Определитесь, кто Вы:
робот инопланетянин человек

Внимание! Время в таблицах - всемирное. Для получения местного времени необходимо прибавить поправку, которая в Svinoy Fyr равна 1 ч.

Смотрите также архив погоды в соседних городах и на ближайших метеорологических станциях:

Погода в Bergen Lufthavn (Норвегия) (5 км)
Погода в Fiskabygd (Норвегия) (30 км)
Погода в Krakenes Fyr (Норвегия) (36 км)
Погода в Orsta-Volda Lufthavn (Норвегия) (45 км)
Погода в Alesund IV (Норвегия) (51 км)
Погода в Alesund Lufthavn (Норвегия) (51 км)
Погода в Sandane Lufthavn (Норвегия) (70 км)
Погода в Stryn-Kroken (Норвегия) (81 км)
Погода в Floro Lifthavn (Норвегия) (84 км)
Погода в Rekdal (Норвегия) (84 км)

Пояснения к столбцам:

Ветер - указаны скорость ветра в м/с - средняя за 10 мин, порывы в срок и между сроками (в фигурных скобках) и направление, откуда дует ветер: С - северный, СВ - северо-восточный, В - восточный, ЮВ - юго-восточный, Ю - южный, ЮЗ - юго-западный, З - западный, СЗ - северо-западный.
Видимость - горизонтальная дальность видимости в метрах или километрах. При видимости от 1 до 10 км при отсутствии осадков обычно наблюдается дымка, при ухудшении видимости до 1 км и менее - туман. В сухую погоду видимость может ухудшаться дымом, пылью или мглою.
Явления - указаны атмосферные явления, наблюдавшиеся в срок или в последний час перед сроком; фигурными скобками обозначены явления, наблюдавшиеся между сроками (за 1-3 часа до срока); квадратными скобками обозначены град или гололедные отложения с указанием их диаметра в мм.
Облачность - указаны через наклонную черту общая и нижняя облачность в баллах и высота нижней границы облаков в метрах; квадратными скобками обозначены формы облаков: Ci - перистые, Cs - перисто-слоистые, Cc - перисто-кучевые, Ac - высококучевые, As - высокослоистые, Sc - слоисто-кучевые, Ns - слоисто-дождевые, Cu - кучевые, Cb - кучево-дождевые. Подробнее классификацию облаков см. в Атласе облаков (PDF).
T - Температура воздуха - температура, измеренная на высоте 2 м над землей.
Td - Температура точки росы - температура, при понижении до которой содержащийся в воздухе водяной пар достигнет насыщения.
f - Относительная влажность воздуха - влажноcть воздуха, измеренная на высоте 2 м над землей.
Te - Эффективная температура - температура, которую ощущает одетый по сезону человек в тени. Характеристика душности погоды. При расчете учитывается влияние влажности воздуха и скорости ветра на теплоощущения человека.
Tes - Эффективная температура на солнце - температура, которую ощущает человек, с поправкой на солнечный нагрев. Характеристика знойности погоды. Зависит от высоты солнца над горизонтом, облачности и скорости ветра. Ночью, в пасмурную погоду, а также при ветре 12 м/с и более поправка равна нулю.
P - Атмосферное давление - приведенное к уровню моря атмосферное давление.
Po - Атмосферное давление - измеренное на уровне метеостанции атмосферное давление.
Tmin - Минимальная температура - минимум температуры воздуха на высоте 2 м над землей.
Tmax - Максимальная температура - максимум температуры воздуха на высоте 2 м над землей.
R - Количество осадков - Количество выпавших осадков за период времени, мм. При наведении курсора мыши на число - период времени, за который выпало указанное количество осадков.
R24 - Количество осадков - Количество выпавших осадков за 24 часа, мм.
S - Снежный покров - Высота снежного покрова, см. При наведении курсора мыши на число - состояние снежного покрова и степень покрытия местности в баллах.